Weather History for KLVS - July, 2013

Change the Weather History Date:

Friday, July 5, 2013

  Actual Average Record
Temperature  
Mean Temperature 72 °F -  
Max Temperature 87 °F 83 °F 93 °F (1966)
Min Temperature 57 °F 53 °F 46 °F (2004)
Cooling Degree Days 6    
Growing Degree Days 22 (Base 50)    
Moisture  
Dew Point 52 °F    
Average Humidity 57    
Maximum Humidity 81    
Minimum Humidity 27    
Precipitation  
Precipitation 0.10 in - - ()
Sea Level Pressure  
Sea Level Pressure 29.90 in    
Wind  
Wind Speed 10 mph (SSW)    
Max Wind Speed 24 mph    
Max Gust Speed 33 mph    
Visibility 9 miles    
Events Rain , Thunderstorm    
Averages and records for this station are not official NWS values.
T = Trace of Precipitation, MM = Missing Value Source: NWS Daily Summary

Daily Weather History Graph

Daily Weather History Graph

Search for Another Location

Airport or City:

Trip Planner

Search our weather history database for the weather conditions in past years. The results will help you decide how hot, cold, wet, or windy it might be!

Date:

Astronomy

Jul. 05, 2013 Rise Set
Actual Time 5:50 AM MDT 8:19 PM MDT
Civil Twilight 5:20 AM MDT 8:49 PM MDT
Nautical Twilight 4:43 AM MDT 9:26 PM MDT
Astronomical Twilight 4:03 AM MDT 10:06 PM MDT
Moon 3:49 AM MDT (7/5) 6:18 PM MDT (7/5)
Length of Visible Light 15h 28m
Length of Day
14h 29m
Waning Crescent, 6% of the Moon is Illuminated
Jul 5
Waning Crescent
Jul 8
New
Jul 15
First Quarter
Jul 22
Full
Jul 29
Last Quarter

Hourly Weather History & Observations

Time (MDT) Temp. Dew Point Humidity Pressure Visibility Wind Dir Wind Speed Gust Speed Precip Events Conditions
12:53 AM 62.1 °F 48.9 °F 62% 29.83 in 10.0 mi South 6.9 mph - 0.00 in   Partly Cloudy
1:53 AM 61.0 °F 48.9 °F 64% 29.82 in 10.0 mi SW 4.6 mph - N/A   Clear
2:53 AM 57.9 °F 50.0 °F 75% 29.82 in 10.0 mi SSE 8.1 mph - N/A   Partly Cloudy
3:53 AM 62.1 °F 46.0 °F 56% 29.81 in 10.0 mi WSW 8.1 mph - N/A   Clear
4:53 AM 66.0 °F 46.0 °F 48% 29.81 in 10.0 mi WSW 10.4 mph - N/A   Clear
5:53 AM 61.0 °F 48.9 °F 64% 29.81 in 10.0 mi South 8.1 mph - N/A   Scattered Clouds
6:53 AM 61.0 °F 48.9 °F 64% 29.81 in 10.0 mi South 11.5 mph - N/A   Scattered Clouds
7:53 AM 63.0 °F 50.0 °F 63% 29.83 in 10.0 mi South 10.4 mph - N/A   Mostly Cloudy
8:53 AM 70.0 °F 52.0 °F 53% 29.83 in 10.0 mi South 12.7 mph - N/A   Partly Cloudy
9:53 AM 75.9 °F 50.0 °F 40% 29.80 in 10.0 mi South 12.7 mph - N/A   Clear
10:53 AM 80.1 °F 46.9 °F 31% 29.77 in 10.0 mi SW 8.1 mph - N/A   Scattered Clouds
11:53 AM 81.0 °F 46.0 °F 29% 29.76 in 10.0 mi SSW 15.0 mph - N/A   Scattered Clouds
12:53 PM 84.0 °F 48.0 °F 28% 29.73 in 10.0 mi SSW 10.4 mph - N/A   Clear
1:19 PM 86.0 °F 48.2 °F 27% 30.09 in 10.0 mi SW 16.1 mph 24.2 mph N/A Thunderstorm Clear
1:53 PM 78.1 °F 46.0 °F 32% 29.75 in 10.0 mi WSW 24.2 mph 33.4 mph N/A Thunderstorm Thunderstorm
2:23 PM 68.0 °F 51.8 °F 56% 30.08 in 7.0 mi WSW 19.6 mph 32.2 mph 0.01 in Rain , Thunderstorm Thunderstorms and Rain
2:35 PM 66.2 °F 57.2 °F 73% 30.08 in 5.0 mi SW 6.9 mph - 0.04 in Rain , Thunderstorm Light Rain
2:53 PM 70.0 °F 57.9 °F 65% 29.78 in 10.0 mi SSE 5.8 mph - 0.04 in Thunderstorm Mostly Cloudy
3:24 PM 69.8 °F 57.2 °F 64% 30.08 in 10.0 mi East 8.1 mph - N/A   Mostly Cloudy
3:53 PM 71.1 °F 55.0 °F 57% 29.73 in 10.0 mi East 5.8 mph - N/A   Mostly Cloudy
4:07 PM 73.4 °F 55.4 °F 53% 30.06 in 10.0 mi Calm Calm - 0.00 in Rain , Thunderstorm Light Rain
4:30 PM 75.2 °F 53.6 °F 47% 30.06 in 1.5 mi Variable 6.9 mph - 0.00 in Rain , Thunderstorm Light Thunderstorms and Rain
4:38 PM 71.6 °F 51.8 °F 50% 30.07 in 8.0 mi WNW 18.4 mph 25.3 mph 0.02 in Rain , Thunderstorm Light Thunderstorms and Rain
4:51 PM 69.8 °F 53.6 °F 56% 30.07 in 6.0 mi West 12.7 mph - 0.04 in Rain , Thunderstorm Light Thunderstorms and Rain
4:53 PM 70.0 °F 53.1 °F 55% 29.74 in 8.0 mi West 10.4 mph - 0.04 in Rain , Thunderstorm Light Thunderstorms and Rain
5:15 PM 71.6 °F 55.4 °F 57% 30.05 in 10.0 mi South 16.1 mph - 0.00 in Thunderstorm Overcast
5:21 PM 71.6 °F 55.4 °F 57% 30.05 in 10.0 mi SSE 18.4 mph - 0.00 in Thunderstorm Overcast
5:39 PM 71.6 °F 55.4 °F 57% 30.05 in 10.0 mi SSE 11.5 mph - 0.00 in Thunderstorm Overcast
5:53 PM 72.0 °F 53.1 °F 51% 29.73 in 10.0 mi SE 13.8 mph - 0.00 in Rain , Thunderstorm Light Rain
6:06 PM 69.8 °F 55.4 °F 60% 30.06 in 10.0 mi East 15.0 mph - 0.00 in Rain Light Rain
6:53 PM 70.0 °F 53.1 °F 55% 29.76 in 10.0 mi SSE 15.0 mph - 0.00 in   Partly Cloudy
7:21 PM 69.8 °F 53.6 °F 56% 30.13 in 10.0 mi Variable 5.8 mph - N/A Thunderstorm Mostly Cloudy
7:53 PM 64.0 °F 55.0 °F 73% 29.86 in 10.0 mi NW 16.1 mph 28.8 mph N/A Thunderstorm Overcast
8:20 PM 62.6 °F 55.4 °F 77% 30.15 in 10.0 mi NNW 17.3 mph 27.6 mph 0.01 in Rain Light Rain
8:53 PM 62.1 °F 55.0 °F 78% 29.85 in 10.0 mi NNW 10.4 mph - 0.01 in Rain Light Rain
9:53 PM 62.1 °F 55.9 °F 80% 29.80 in 10.0 mi South 11.5 mph - 0.01 in   Partly Cloudy
10:53 PM 61.0 °F 55.0 °F 81% 29.81 in 10.0 mi West 8.1 mph - N/A   Mostly Cloudy
11:53 PM 62.1 °F 54.0 °F 75% 29.77 in 10.0 mi SSW 12.7 mph - N/A   Clear